GFSSE_500_rhum_114.txt.gz
RH
12 14 13 9 9 9 8 7 7 7 6 6 6 6 5 5 4 4 4 4 4 4 6 6 5 6 7 8 7 8 9 11 13 10 10 12 22 21 17 25 41 42 32
14 16 13 10 8 10 8 7 6 6 6 6 5 5 4 4 4 4 4 4 4 4 7 8 4 5 6 8 8 8 9 15 14 12 10 13 20 17 21 53 38 53 48
13 14 13 12 8 6 6 6 6 5 5 5 5 5 4 4 4 4 5 5 6 7 10 12 7 4 5 6 7 8 10 14 15 14 16 14 25 19 62 90 74 76 61
18 15 13 10 9 9 8 6 6 5 5 5 5 5 5 5 5 6 7 8 9 11 14 14 13 9 8 7 6 10 12 13 14 16 18 26 39 59 75 81 80 75 72
22 18 16 13 11 10 9 10 9 9 8 8 8 8 8 7 7 7 9 12 14 14 15 15 16 14 11 8 8 10 14 12 13 17 28 36 42 76 81 92 77 84 85
28 25 24 22 19 15 13 12 11 10 10 10 9 9 9 11 11 14 16 16 16 17 15 15 17 20 18 16 14 14 22 14 16 16 19 34 51 60 80 89 80 76 83
23 22 23 21 24 24 23 21 20 19 18 17 16 15 16 18 19 20 20 19 18 19 18 18 19 19 20 22 23 21 21 17 16 15 18 34 42 49 72 62 78 81 69
28 27 24 24 20 21 20 20 22 22 22 22 21 21 21 19 21 20 21 20 18 19 19 20 20 22 24 24 25 24 24 18 13 15 28 28 37 42 45 56 62 62 78
41 32 30 27 28 26 23 20 18 19 20 20 21 20 19 17 19 21 19 18 18 21 21 21 21 22 26 26 26 25 26 24 13 15 22 24 34 35 44 54 93 78 60
37 40 33 31 29 28 27 26 23 20 20 21 21 21 20 19 20 20 19 18 19 22 22 21 24 24 26 26 27 29 30 29 26 19 13 16 30 37 40 56 59 81 72
26 32 38 36 37 39 38 32 26 25 24 24 25 26 25 22 22 21 21 20 21 23 24 24 26 26 27 28 25 26 25 23 28 31 23 19 24 26 43 58 50 45 67
33 28 28 35 40 42 44 44 41 33 28 27 31 33 35 31 25 23 22 24 23 22 21 24 26 28 32 32 28 24 23 22 22 24 22 24 21 32 50 59 63 50 48
36 34 34 32 38 42 48 50 50 47 42 36 34 35 39 38 34 27 27 29 28 26 23 22 25 28 37 38 35 30 24 23 21 21 23 26 30 36 50 62 49 47 61
52 42 40 40 50 48 48 51 52 51 51 46 41 41 42 40 35 31 29 35 34 31 26 23 24 29 31 38 45 40 33 26 24 23 23 23 31 50 52 79 38 34 41
28 52 54 49 48 73 56 56 53 50 54 71 59 47 38 39 41 43 46 57 50 45 36 31 26 25 25 31 43 47 43 37 29 27 26 26 32 48 47 52 57 50 38
5 11 27 46 53 60 59 57 61 58 67 68 63 75 78 62 66 69 81 90 86 67 45 35 32 31 29 29 39 47 46 42 44 35 33 37 34 45 36 32 39 46 34
11 9 9 28 54 74 74 60 59 63 65 67 64 67 74 87 95 86 82 84 96 88 44 34 34 34 32 34 41 50 51 44 38 43 47 41 30 31 32 31 34 36 43
5 9 17 36 63 67 65 61 62 57 54 56 59 68 73 61 65 88 94 96 96 91 50 38 37 34 34 38 53 68 70 50 38 30 30 39 37 26 37 33 30 31 40
4 5 8 37 64 57 54 58 58 55 50 45 43 49 55 63 81 66 75 76 92 93 94 57 39 35 35 41 53 81 76 60 48 31 20 18 22 24 22 22 28 27 37
4 6 11 42 58 77 75 61 55 56 50 45 41 40 40 39 43 49 52 54 63 72 74 97 83 38 28 33 43 57 68 63 58 40 28 20 14 18 20 15 15 24 26
6 10 25 58 77 90 89 76 60 56 50 37 34 33 32 32 33 32 35 32 30 42 58 74 90 100 98 85 35 42 37 40 53 46 30 26 27 17 17 15 12 18 20
26 25 38 56 89 86 80 74 68 58 46 32 30 35 33 29 29 30 28 26 24 22 25 48 67 95 99 97 97 96 80 66 50 49 33 22 33 18 16 17 11 18 16
64 67 58 51 76 91 88 78 65 57 48 37 33 34 34 32 30 26 25 23 22 22 19 17 28 52 76 67 74 94 96 95 87 64 37 20 19 20 20 23 17 15 18
70 60 76 63 100 98 90 80 68 59 49 40 36 34 33 30 28 27 25 25 24 22 22 20 20 34 53 49 54 75 98 97 95 96 78 42 25 21 24 31 32 17 20
72 62 95 100 98 97 92 83 73 60 46 40 38 35 30 29 30 28 28 26 23 24 24 25 24 19 26 44 49 60 79 97 91 96 97 83 38 37 19 19 24 22 18
82 83 85 97 96 99 90 82 82 79 57 44 40 37 32 29 29 30 30 26 24 20 18 10 6 5 6 13 23 33 54 69 66 80 89 98 81 52 31 21 23 12 15

GFSSE_500_rhum_117.txt.gz
RH
28 20 15 16 14 11 8 7 8 8 8 7 6 6 6 5 4 4 4 3 3 4 4 6 7 5 5 6 7 7 7 7 11 15 13 14 13 13 18 21 72 61 45
29 23 14 14 12 10 8 8 8 6 6 6 6 6 6 5 4 4 4 4 4 4 5 7 10 8 5 6 7 7 7 8 11 15 15 18 18 31 27 62 74 76 62
31 22 17 15 13 11 10 7 6 6 5 5 5 5 5 4 4 4 4 4 5 6 8 9 11 11 7 6 7 7 7 10 12 14 15 17 24 34 46 64 64 66 76
40 31 19 16 14 12 9 10 10 8 7 7 7 7 7 7 7 6 7 7 8 10 12 14 15 14 12 10 9 8 8 12 15 15 15 16 19 28 55 71 69 56 71
47 42 27 22 18 16 13 11 10 10 10 9 9 9 9 9 9 9 10 13 14 16 16 16 16 16 15 14 13 11 12 14 19 16 18 16 16 37 57 68 90 74 51
39 35 29 28 27 23 20 18 16 14 13 13 13 14 14 12 13 15 18 20 20 19 20 19 18 19 18 16 15 16 20 20 20 17 17 14 24 30 37 62 71 77 65
30 30 29 27 25 25 25 24 24 24 23 21 21 21 20 19 20 22 23 24 23 22 22 21 20 20 21 19 17 17 20 23 23 20 16 12 27 25 36 49 58 77 67
30 29 29 29 26 26 27 24 23 22 22 22 21 21 21 22 22 24 23 23 21 24 25 24 21 22 22 21 21 20 20 24 25 22 15 13 20 22 29 41 56 77 71
35 36 32 30 31 30 31 30 30 29 26 23 20 20 20 19 18 20 24 25 24 24 26 28 26 26 26 24 23 21 20 24 27 26 20 16 17 15 22 32 63 72 74
30 37 40 38 33 33 30 29 30 29 30 29 26 24 23 22 22 23 25 27 26 28 31 31 28 28 29 28 24 23 20 21 28 30 32 27 22 18 23 26 44 59 45
38 33 37 35 36 34 35 32 34 37 38 33 29 27 26 28 28 27 27 26 28 32 34 34 33 33 33 35 29 28 24 20 23 28 30 32 30 21 23 27 45 60 63
45 41 40 42 41 36 34 36 38 41 43 45 44 38 31 30 33 34 35 33 30 34 39 39 40 43 40 34 36 32 26 24 22 25 28 27 23 23 27 44 48 64 67
29 37 45 44 46 49 44 40 41 44 49 51 50 47 42 37 36 38 38 38 37 35 41 44 47 47 45 37 39 38 32 27 24 23 23 21 21 26 29 41 49 64 52
15 33 13 19 42 56 57 50 60 52 53 54 54 52 50 46 42 42 43 43 39 35 42 48 51 52 54 47 40 41 39 37 33 27 24 23 23 25 26 33 57 70 61
6 7 12 20 23 58 72 78 76 77 65 59 54 53 58 65 57 44 43 42 42 42 45 54 56 56 54 48 39 37 44 39 35 35 29 27 26 25 32 36 41 47 53
10 8 6 6 10 27 64 87 80 74 69 66 65 66 65 70 65 67 70 64 54 58 57 74 74 65 59 50 45 44 45 49 40 36 36 30 30 30 36 38 40 32 36
11 10 7 7 5 7 16 60 87 86 74 69 73 75 81 83 80 77 82 82 78 92 73 91 94 83 62 50 49 44 48 48 36 38 38 37 35 34 40 37 35 27 28
10 7 5 4 5 5 7 14 50 73 77 73 71 74 79 89 88 84 78 69 80 92 96 96 96 94 73 41 42 53 49 38 35 34 37 35 36 34 37 34 24 24 28
5 4 3 3 4 5 10 15 14 39 70 76 68 66 68 78 85 86 92 94 90 81 100 94 97 99 94 60 41 57 50 43 41 42 43 45 39 33 26 26 20 14 16
7 7 5 3 4 6 10 16 19 29 55 80 71 63 60 59 57 62 70 71 78 65 85 95 98 86 86 96 96 68 54 50 36 37 45 48 57 38 24 17 16 16 13
5 5 5 4 5 7 17 28 28 42 53 79 78 70 61 55 50 46 47 54 52 61 59 61 57 51 58 100 99 94 96 96 95 95 95 72 60 57 37 28 15 16 17
10 24 40 28 26 27 28 50 76 80 81 84 87 82 71 60 49 41 40 39 38 35 35 38 29 28 37 47 72 96 97 97 94 96 98 96 97 65 56 36 28 20 17
93 93 84 88 92 84 77 77 51 68 98 98 93 85 71 60 44 37 36 36 35 31 29 28 26 27 25 34 31 48 57 67 70 72 88 94 98 88 74 42 36 28 22
99 100 100 100 87 74 94 98 98 80 75 97 95 78 65 55 43 37 35 32 32 30 26 25 23 21 16 18 19 34 40 46 45 50 60 72 97 88 88 44 32 32 27
99 100 99 98 86 78 80 95 92 96 100 100 95 80 66 57 45 37 34 32 31 28 26 27 24 22 20 17 18 16 20 27 33 40 48 56 86 99 98 92 53 29 27
60 99 100 94 98 63 96 99 98 95 98 96 83 74 58 48 42 37 33 31 31 29 29 27 27 26 25 24 24 21 16 15 21 25 25 31 32 49 78 93 96 46 51

GFSSE_500_rhum_123.txt.gz
RH
24 26 24 27 27 23 17 12 11 10 8 7 8 7 6 6 6 6 5 5 5 5 4 4 4 6 7 8 6 5 6 7 8 9 12 15 16 17 16 36 51 68 71
19 20 28 26 27 27 21 16 12 10 11 8 7 7 6 6 6 6 6 7 6 6 6 6 6 8 9 10 8 5 6 6 7 8 13 16 16 16 34 42 50 63 58
21 25 28 30 26 28 26 23 17 14 12 10 10 10 9 9 9 9 9 9 8 8 8 8 11 12 11 12 12 7 7 7 8 10 14 18 19 17 23 26 50 64 65
22 23 26 29 33 38 36 27 24 20 16 13 11 11 11 11 11 11 11 10 10 11 14 16 16 14 14 15 15 13 11 11 10 13 16 21 20 18 20 19 35 51 73
22 24 30 35 38 43 39 30 26 24 23 20 18 18 17 17 16 17 18 16 15 18 19 20 19 19 17 16 16 16 14 13 15 18 21 22 23 19 24 37 34 41 57
27 29 36 41 44 44 32 30 28 28 27 25 24 23 22 24 24 25 24 23 22 22 21 21 20 20 22 19 18 19 19 18 19 22 24 25 25 22 21 45 47 52 49
35 38 43 45 47 39 30 28 27 26 26 24 22 21 21 20 20 22 25 23 22 21 19 19 18 19 24 24 23 21 20 20 20 22 24 27 26 22 22 36 33 56 56
48 48 48 48 44 37 30 28 29 29 28 27 27 26 26 26 25 22 21 23 22 22 20 20 22 22 23 26 27 26 24 23 23 22 23 25 27 26 22 19 27 34 44
44 49 51 56 50 40 34 31 32 33 32 30 29 29 28 26 26 26 26 24 24 22 23 24 24 25 26 23 23 26 26 26 26 24 23 23 26 28 31 29 24 26 30
40 44 44 46 48 46 38 33 32 34 38 40 36 33 32 31 30 30 28 28 26 26 26 27 29 27 26 26 26 26 29 28 28 26 25 24 26 28 30 32 28 24 28
41 43 44 41 41 41 42 42 40 36 36 39 42 43 41 38 38 37 37 34 30 27 28 33 36 37 33 32 28 28 29 31 31 27 26 24 24 27 28 29 26 26 29
39 33 26 32 40 46 49 48 45 45 45 42 40 40 40 44 45 44 44 43 42 38 33 31 36 38 41 39 34 32 32 29 28 31 27 25 24 24 25 26 23 24 28
7 5 5 8 8 8 7 8 24 50 50 51 50 49 45 41 45 50 50 48 47 46 43 39 38 41 42 42 41 36 33 32 32 31 30 27 24 24 24 24 22 24 28
5 5 5 6 7 10 10 9 16 23 16 19 49 58 56 53 53 54 61 59 58 53 49 45 44 44 45 48 45 40 39 36 37 36 36 29 27 27 25 26 28 25 27
8 8 8 7 7 7 8 14 22 34 33 28 13 21 49 63 70 66 66 80 88 80 65 64 66 59 49 48 49 45 45 46 45 50 44 35 30 27 29 31 36 43 34
12 12 13 14 12 12 13 15 27 29 42 32 28 15 17 41 65 83 86 80 76 84 73 73 77 81 78 70 64 56 53 55 56 63 58 46 37 32 31 30 34 48 51
15 17 20 21 21 20 18 14 14 29 31 37 38 36 24 32 53 67 74 86 87 74 78 79 80 82 81 78 80 87 85 61 75 77 77 60 44 35 30 32 31 37 51
25 25 24 21 19 17 15 13 10 11 18 17 30 36 44 36 41 63 79 77 94 96 94 94 87 87 85 85 80 80 90 90 99 97 94 82 68 38 32 31 31 30 35
21 19 17 17 16 16 14 13 13 13 12 10 20 20 13 27 34 44 70 84 90 87 86 96 97 93 86 84 86 90 96 96 98 97 98 96 94 71 55 46 35 49 53
19 17 14 11 9 8 8 7 8 11 24 19 10 11 14 13 24 26 41 60 75 92 85 81 84 92 90 96 96 96 96 99 96 98 97 99 98 94 92 93 95 93 76
17 16 16 15 15 14 12 9 8 11 38 43 27 23 13 6 7 10 13 27 42 66 90 83 80 80 76 84 94 94 96 96 96 96 90 94 99 99 64 84 97 93 65
19 19 18 17 15 13 10 27 35 23 33 20 8 7 7 6 6 7 21 23 30 46 83 84 72 74 69 63 63 69 85 84 84 93 91 70 75 85 71 77 96 88 65
19 17 12 9 7 6 5 10 18 51 43 44 81 40 20 25 14 9 10 33 52 58 83 95 82 67 65 59 53 50 48 42 59 64 70 64 77 62 59 66 73 55 40
17 12 8 5 8 14 20 39 56 50 49 97 98 93 85 89 75 50 31 38 74 92 97 99 94 83 72 66 57 47 45 35 26 30 38 32 36 47 61 55 42 34 24
10 8 6 23 48 42 44 58 72 71 90 91 100 99 98 87 75 80 71 53 68 91 100 99 97 93 85 72 57 44 39 36 30 24 25 28 24 25 27 19 17 16 19
8 8 30 65 62 66 57 72 70 96 100 86 100 96 100 96 84 92 85 64 69 59 89 100 96 95 84 69 49 42 40 36 33 30 24 19 21 21 19 19 20 20 15

GFSSE_500_rhum_129.txt.gz
RH
12 13 14 16 17 18 20 22 20 16 13 11 9 8 6 5 6 5 5 5 6 8 8 8 7 7 10 11 11 9 7 6 6 7 9 12 15 19 18 16 19 32 56
15 15 16 18 21 24 28 31 31 31 21 17 13 9 8 7 6 6 7 8 8 9 8 9 10 12 14 14 14 14 10 6 6 8 9 12 18 19 19 17 22 26 45
16 18 19 21 23 25 31 34 36 35 33 24 18 13 10 8 8 8 9 10 12 14 12 13 16 18 18 17 16 16 15 12 9 10 10 13 21 22 20 20 36 43 39
20 22 25 27 29 30 33 38 39 36 34 29 23 19 15 14 14 13 15 16 17 19 19 18 20 20 20 19 18 17 16 16 14 12 12 17 22 19 20 22 21 35 50
26 28 32 36 36 37 40 44 43 40 32 25 26 24 23 23 24 22 22 21 21 19 20 20 20 20 18 17 18 18 16 17 17 17 19 16 19 21 20 21 20 25 45
32 33 36 40 43 42 43 43 41 38 32 25 25 25 22 22 24 26 26 23 20 18 18 17 16 16 16 15 16 18 18 18 19 19 18 18 21 32 28 23 23 20 25
35 38 41 47 47 45 43 40 41 39 36 29 26 26 24 23 23 26 28 28 24 21 21 21 18 19 17 17 17 15 17 18 19 20 20 20 21 25 22 22 24 21 22
38 42 47 53 60 49 42 39 38 40 41 34 29 27 27 26 26 27 28 29 30 29 26 24 23 22 23 22 20 19 18 16 18 20 21 22 22 22 22 21 24 26 24
44 44 46 48 49 48 45 40 42 43 43 42 36 32 30 27 26 26 28 28 29 30 30 29 27 26 26 27 27 26 24 22 19 18 19 20 22 23 22 22 23 27 24
46 45 46 48 48 45 45 45 49 48 43 41 42 41 36 31 30 30 29 29 30 31 41 42 32 30 29 29 31 31 32 31 26 23 20 18 20 25 24 23 23 24 23
48 45 45 46 45 44 46 48 44 38 33 38 40 44 44 43 40 37 34 31 33 34 38 48 51 47 37 34 33 33 32 34 36 33 29 26 22 25 25 23 22 23 23
49 49 48 47 48 49 49 36 19 16 13 10 10 12 19 33 43 46 48 45 40 35 38 42 50 53 53 44 41 40 40 43 46 40 38 34 30 26 25 26 25 24 22
27 32 30 19 18 25 18 9 9 9 10 10 10 9 9 14 14 31 43 56 50 52 52 45 45 46 48 48 49 54 58 54 50 49 43 42 36 34 32 29 26 25 26
6 7 6 6 6 7 8 8 8 9 10 11 11 15 12 16 11 18 34 42 56 51 52 56 72 88 78 79 78 69 61 58 66 65 53 47 42 41 42 36 28 24 26
16 15 11 8 7 7 7 7 7 15 21 21 38 52 54 36 31 39 38 42 49 47 54 55 58 66 75 88 95 95 90 82 77 77 68 53 51 48 47 47 43 38 27
24 27 36 28 20 15 10 9 8 10 12 14 24 50 54 49 31 35 32 42 49 58 57 52 49 52 69 74 82 84 88 95 94 92 96 80 70 64 63 59 55 56 46
30 29 28 33 42 38 25 18 16 17 19 21 35 40 29 32 26 29 26 22 40 44 61 71 75 77 75 62 57 70 85 94 90 87 91 96 86 98 95 87 78 89 76
32 31 32 30 30 30 29 27 26 26 26 30 33 26 19 18 18 17 16 17 17 21 24 37 44 49 67 67 64 63 73 84 91 84 95 94 93 86 91 90 91 87 90
34 33 31 30 28 26 24 23 22 22 21 21 21 20 18 14 12 11 10 10 11 14 14 15 23 28 38 40 45 87 82 79 88 90 93 82 84 93 90 94 84 82 88
33 32 30 28 27 25 24 23 22 22 21 20 19 20 20 17 18 20 19 15 12 10 9 10 12 17 21 18 17 22 28 74 95 96 97 98 80 96 96 97 97 95 96
30 28 25 24 23 23 24 23 22 21 19 18 16 16 17 22 40 43 32 24 20 18 14 11 9 12 13 14 14 18 26 30 52 88 90 98 97 96 97 92 97 93 96
19 18 17 17 18 18 18 18 18 18 17 16 16 15 14 14 14 28 26 21 25 23 15 12 12 12 14 14 11 10 15 30 32 35 61 71 84 96 95 96 97 100 93
22 22 21 20 17 15 13 14 15 17 18 16 14 12 10 11 11 12 26 32 36 32 29 20 22 22 20 19 15 11 11 14 26 29 34 38 69 77 77 83 84 94 92
20 18 16 14 12 14 15 17 18 17 14 12 9 8 8 7 10 18 33 39 49 58 53 44 46 46 33 23 16 12 11 8 9 23 27 51 57 68 63 56 51 72 89
20 17 15 16 18 17 15 14 13 12 11 9 8 13 39 33 21 21 44 73 83 60 63 70 88 49 30 26 31 17 12 11 11 12 26 43 51 70 65 62 59 44 52
21 18 16 17 15 14 14 16 15 12 11 16 30 50 58 60 46 56 65 73 75 73 56 98 98 100 95 75 69 44 26 28 50 35 25 35 49 62 78 71 67 51 38

GFSSE_500_rhum_132.txt.gz
RH
31 16 14 16 18 19 23 28 27 23 22 15 12 10 9 8 6 5 4 4 5 6 7 8 7 7 7 8 10 11 10 8 6 6 8 10 13 17 17 16 17 28 30
25 16 17 19 21 23 25 29 34 37 35 29 18 15 12 9 8 7 7 7 8 8 10 10 10 11 12 13 14 13 13 12 8 7 9 10 14 20 20 17 22 38 36
26 18 19 22 26 29 32 33 35 37 36 35 28 20 17 14 10 9 8 10 11 13 15 15 14 15 16 16 16 15 14 14 13 12 11 12 19 22 17 18 18 22 36
20 20 24 28 32 36 39 39 41 41 39 34 27 27 24 20 16 14 14 15 17 18 17 18 18 17 16 16 14 16 16 14 12 13 16 61 37 22 19 18 18 20 24
23 25 29 34 36 40 45 45 43 38 38 35 28 25 25 25 24 21 22 22 20 19 17 17 17 17 15 14 13 13 15 15 14 15 18 20 20 18 21 31 18 18 18
31 33 37 40 43 46 46 45 42 39 38 41 37 28 26 24 24 23 21 21 20 18 16 15 17 16 16 16 15 14 12 14 15 15 43 39 18 20 20 26 17 18 19
36 37 39 42 44 45 46 42 40 39 40 40 44 35 27 26 24 26 27 28 27 26 24 20 18 20 20 20 20 20 18 15 13 15 26 35 20 20 22 21 19 18 20
37 39 42 42 42 42 41 40 41 38 41 43 44 44 32 28 27 25 25 27 29 30 30 28 26 24 23 21 21 23 23 21 19 18 19 24 17 20 22 22 20 20 20
40 42 44 45 46 45 45 43 40 37 39 39 39 42 43 38 31 30 30 30 31 30 30 28 28 30 28 27 26 25 25 26 27 27 23 22 18 18 21 22 26 23 21
38 40 41 43 42 46 46 43 40 40 42 40 39 41 41 42 42 39 36 35 35 37 37 39 40 44 46 41 33 30 28 28 29 32 33 30 26 26 23 22 22 25 24
42 42 39 43 48 50 49 46 42 44 45 41 32 34 39 43 45 46 45 45 44 42 41 40 40 40 47 51 52 43 36 34 32 33 34 38 36 31 27 23 23 22 24
30 39 41 50 49 48 47 46 49 47 38 12 9 9 9 9 13 22 42 50 52 57 53 52 52 48 45 44 50 54 48 41 39 40 47 45 41 40 35 30 28 22 22
6 7 12 22 29 35 29 26 30 33 14 8 8 9 9 9 14 16 24 39 56 81 72 53 56 57 57 59 52 50 46 47 45 48 51 47 46 45 43 38 36 30 23
12 12 12 8 7 7 6 6 7 8 14 12 21 80 48 40 25 34 42 32 42 47 54 73 92 83 61 44 45 53 64 80 75 60 51 51 58 52 46 42 40 38 31
16 17 18 20 18 17 16 12 9 7 6 12 35 71 51 35 42 63 69 76 82 83 72 69 71 58 61 57 59 49 31 47 74 88 88 75 66 66 58 49 47 47 46
15 18 21 22 24 26 28 34 38 31 18 14 10 10 14 21 20 30 34 42 52 38 38 53 67 93 95 93 84 59 54 44 36 51 78 84 95 84 76 73 68 64 65
36 35 33 28 30 31 30 30 41 54 54 59 40 30 18 22 30 46 46 38 26 25 27 28 50 55 65 69 71 100 98 76 65 59 62 75 83 88 93 88 82 74 70
36 33 33 34 35 35 33 31 31 31 30 29 28 28 27 27 29 32 33 24 19 18 18 17 18 19 20 26 24 33 94 88 96 96 79 63 73 89 91 99 89 86 81
30 29 29 30 32 33 32 30 28 27 25 24 24 22 22 21 21 21 22 22 20 17 14 13 11 10 11 13 13 12 18 30 32 84 88 95 96 99 90 93 96 96 90
22 24 26 27 28 29 29 27 26 25 24 23 23 23 22 22 22 21 20 19 19 19 17 15 15 16 13 10 9 9 10 11 15 22 28 31 72 87 97 98 96 95 96
22 21 22 23 22 21 19 18 18 18 18 18 18 18 17 17 18 17 17 16 16 16 18 23 24 22 20 18 16 13 10 9 12 16 13 16 51 90 97 96 96 93 95
22 21 20 20 20 20 20 20 19 18 16 14 12 11 11 11 11 12 14 14 14 13 13 14 19 19 17 19 18 15 13 13 11 10 9 14 24 28 27 55 44 68 65
22 22 21 21 20 19 17 15 14 13 12 11 10 10 10 11 11 13 13 13 13 12 13 13 12 14 18 21 19 14 12 12 10 14 12 13 27 27 42 54 33 34 58
19 19 19 19 18 17 16 16 15 14 12 12 13 15 14 14 13 12 12 10 9 8 8 39 20 28 32 35 42 43 28 16 13 11 19 17 22 19 30 41 31 36 63
20 18 18 17 14 12 12 13 14 13 12 11 11 13 14 12 10 10 10 12 18 21 19 18 35 40 42 46 48 51 51 50 37 25 13 21 16 18 20 22 41 30 51
20 18 15 13 11 12 16 17 14 12 13 14 19 18 16 14 13 20 37 46 60 55 51 35 30 34 37 58 56 50 75 51 82 67 33 21 17 18 14 12 23 34 39

GFSSE_500_rhum_138.txt.gz
RH
48 62 74 50 31 22 25 30 33 31 33 31 28 23 20 18 14 12 10 8 7 7 6 6 7 9 9 9 10 11 11 11 10 9 8 12 10 16 17 10 10 10 14
56 64 61 44 26 23 30 33 34 35 32 32 34 32 30 26 20 16 15 11 9 8 9 10 13 13 12 12 12 11 12 12 12 12 10 12 16 32 18 12 16 12 12
85 76 35 36 25 26 33 36 37 38 33 33 35 38 36 28 26 22 20 18 14 13 13 15 16 15 15 14 13 12 11 10 11 12 13 16 43 32 16 15 25 18 14
72 54 24 33 34 31 32 39 40 35 38 37 36 38 37 31 27 27 25 24 23 21 20 19 17 14 13 13 12 11 11 10 13 13 20 44 44 35 22 19 22 24 17
53 28 27 27 33 35 41 42 38 34 37 39 37 36 36 37 29 27 26 24 24 23 22 20 18 16 14 14 12 11 11 11 15 15 17 18 48 68 39 18 19 24 20
26 31 38 37 38 39 40 40 37 34 34 36 36 37 37 38 37 29 28 27 26 24 24 25 26 27 24 19 19 18 16 16 17 16 17 17 34 64 59 16 16 21 21
32 33 34 35 36 38 40 42 40 37 37 37 37 36 38 39 36 32 29 32 32 31 31 29 27 26 26 28 28 27 24 22 22 22 22 21 29 32 61 46 16 17 22
34 36 37 41 44 46 48 46 43 40 38 38 37 36 36 39 41 40 32 29 31 32 34 34 32 31 31 30 30 34 33 30 29 27 28 30 29 32 42 47 18 18 20
37 40 43 46 47 48 48 47 44 39 38 38 38 37 37 38 36 38 39 38 33 35 35 34 35 37 37 36 39 45 47 43 38 35 34 33 33 34 50 72 26 30 24
38 42 45 48 49 50 48 45 42 40 40 37 38 40 40 40 39 37 38 40 40 40 36 35 36 38 40 42 44 47 45 46 47 46 47 42 40 40 40 53 63 29 27
42 47 51 51 44 42 41 40 40 41 40 44 40 38 39 42 42 40 38 38 42 43 42 42 43 49 56 63 59 52 45 44 46 46 47 56 53 48 54 59 68 46 33
9 9 9 9 11 13 14 11 12 20 21 21 19 21 23 38 40 15 13 14 14 15 18 20 28 33 42 54 68 73 69 63 58 54 51 52 56 54 60 73 66 54 45
13 14 13 12 11 10 9 10 10 9 8 7 7 9 12 12 15 18 29 28 30 28 23 32 37 38 50 69 83 76 87 69 63 62 67 66 75 83 77 73 76 66 55
29 30 23 15 15 16 16 16 17 18 20 21 21 19 21 27 30 29 28 29 28 44 49 54 55 53 55 75 88 92 96 95 93 81 57 52 54 81 96 95 86 93 74
28 30 31 32 30 20 14 14 14 14 16 21 22 24 28 31 36 42 50 52 48 50 48 38 34 24 15 19 29 46 67 62 67 90 92 75 65 79 79 94 96 96 97
26 28 33 32 30 30 35 36 30 28 31 30 26 26 31 33 32 32 32 37 40 38 41 43 41 40 39 30 29 42 56 56 44 60 94 82 97 94 95 94 96 93 96
28 30 33 31 30 32 32 34 36 34 30 27 27 27 27 28 28 31 32 32 32 30 29 29 30 29 29 33 33 36 33 26 27 47 73 63 96 96 94 95 96 94 96
34 32 32 29 26 25 26 26 25 22 20 18 18 20 22 22 20 20 20 23 25 25 24 24 23 22 22 22 24 28 29 23 20 18 20 28 27 37 22 21 20 78 88
31 30 26 22 22 22 20 19 19 18 19 20 19 19 18 18 17 17 16 16 16 17 18 19 20 21 22 21 21 21 22 22 21 18 16 14 13 12 11 10 10 21 37
26 22 21 21 22 21 21 20 19 18 19 18 18 18 17 16 15 14 14 13 13 12 13 16 17 16 16 16 17 18 20 20 20 20 20 18 17 16 14 13 11 10 11
22 22 22 20 20 19 19 19 19 19 17 15 14 13 13 13 12 10 8 7 6 6 7 9 10 11 11 11 13 14 15 16 16 17 18 17 17 18 17 16 16 14 14
23 22 21 21 19 19 19 19 17 16 14 14 13 12 10 8 7 6 5 5 7 10 11 11 10 9 8 8 9 9 8 10 11 14 17 17 17 21 25 22 19 18 17
25 24 22 21 20 20 19 17 16 15 14 13 11 9 8 7 5 5 5 5 8 12 13 12 11 11 11 12 14 12 9 9 12 12 13 15 17 24 32 29 27 22 20
28 26 23 22 22 21 19 18 17 16 13 11 9 8 7 6 5 4 6 8 11 14 13 11 11 11 12 14 15 16 17 14 12 11 12 14 14 25 42 41 26 18 16
31 29 27 26 25 23 21 20 18 16 14 12 9 7 7 6 5 8 13 14 14 13 10 9 9 10 13 12 12 12 12 14 14 13 12 17 18 19 29 26 30 30 21
36 34 33 30 28 26 24 22 21 18 15 10 9 8 8 11 11 13 16 17 15 12 11 13 14 12 14 16 15 15 14 14 12 12 12 15 26 24 35 49 43 37 36

GFSSE_500_rhum_141.txt.gz
RH
31 40 64 78 68 46 29 30 33 34 34 31 27 25 26 25 23 22 16 14 12 9 8 7 8 11 12 12 11 11 11 12 12 10 9 8 14 13 30 15 17 14 11
34 61 74 77 68 47 31 31 36 36 35 33 31 29 29 28 26 23 21 18 17 14 12 12 13 16 16 15 15 13 13 13 14 13 12 13 15 38 33 18 21 23 14
40 70 97 67 39 38 35 31 37 38 35 35 35 35 34 32 29 25 21 20 19 20 20 20 20 18 16 19 15 15 14 13 14 16 15 18 18 64 31 22 20 26 20
52 94 78 61 24 30 40 34 35 35 34 36 39 39 36 37 36 32 25 22 20 20 21 22 22 20 17 14 14 13 13 12 12 16 18 33 46 52 51 34 25 24 25
41 38 60 63 29 25 34 36 37 35 36 35 36 37 38 38 37 38 33 26 25 24 22 21 22 23 23 19 18 18 15 12 11 13 24 29 47 56 74 82 33 25 28
34 32 46 34 33 39 43 42 40 39 39 35 36 38 38 39 40 40 39 32 26 27 28 28 28 28 29 28 25 23 23 22 19 18 19 32 22 36 66 80 79 41 29
31 30 29 31 37 47 51 45 46 44 40 38 38 40 40 38 38 40 41 41 31 28 29 31 32 35 33 33 30 29 29 29 26 26 26 25 42 45 41 79 81 54 30
38 37 36 39 43 44 46 48 47 45 43 43 43 42 38 36 36 36 38 38 39 35 30 33 35 35 34 34 32 32 30 35 36 33 32 32 35 60 43 64 57 57 32
39 40 42 44 47 50 50 51 49 45 44 43 41 41 40 41 39 37 38 40 40 39 41 38 34 34 35 35 34 33 32 34 49 51 51 38 35 43 47 52 69 81 40
41 43 44 46 48 48 47 46 45 45 44 44 45 46 48 44 41 40 42 41 42 41 41 40 41 40 39 37 41 47 42 37 36 42 47 57 58 47 43 53 52 80 64
12 16 26 32 38 42 43 43 42 44 42 33 31 29 30 37 38 51 50 42 40 34 37 39 41 42 47 50 48 59 63 72 67 54 43 47 57 63 58 56 61 60 69
12 11 10 10 9 8 8 8 8 8 9 10 10 9 9 9 15 12 14 33 26 15 17 15 13 16 20 27 37 51 70 83 81 77 65 58 57 60 57 53 58 64 61
22 25 17 16 15 15 14 13 12 12 14 17 19 20 16 15 13 16 26 29 24 18 19 29 34 41 50 47 55 66 76 74 92 98 96 74 55 52 61 69 79 69 70
16 16 21 27 31 31 28 18 15 15 17 18 19 19 19 22 25 25 27 29 34 37 44 56 50 47 44 27 26 21 32 46 34 47 73 94 83 89 71 56 72 83 96
19 18 22 26 28 28 33 32 31 26 21 15 15 17 21 25 25 26 30 33 33 33 32 31 34 37 39 39 40 46 45 41 29 40 49 62 54 54 87 95 95 82 80
34 30 27 27 27 30 32 32 32 31 34 38 35 37 36 33 32 32 30 29 29 30 31 30 30 30 30 30 30 33 31 30 32 37 48 43 49 50 71 96 87 97 96
40 34 30 30 30 31 31 28 26 28 32 33 32 30 27 22 19 18 19 19 21 21 23 23 23 22 24 24 24 24 24 24 28 36 44 46 29 32 44 94 90 51 72
41 38 36 34 33 33 31 27 23 20 20 21 19 17 16 16 16 16 16 17 17 17 16 16 16 15 15 16 17 20 22 23 23 23 24 31 28 20 20 19 32 19 20
40 37 36 33 28 25 22 20 20 19 18 17 17 17 17 17 17 16 15 12 11 10 10 9 9 9 10 10 11 14 16 17 18 20 23 23 24 24 21 18 15 14 14
37 34 32 30 24 20 20 20 20 18 18 18 18 18 17 15 14 12 12 11 10 9 8 7 6 5 5 5 6 10 10 11 14 16 17 18 20 22 22 21 19 18 17
35 26 27 25 22 20 20 19 20 20 20 19 19 17 16 14 13 12 11 10 8 7 6 4 4 4 4 3 4 7 6 7 11 11 12 15 17 18 18 19 19 19 18
33 28 27 25 23 21 20 20 20 20 19 19 18 16 15 14 12 10 9 8 7 6 6 5 5 4 4 4 4 6 9 10 11 10 11 12 16 16 14 16 17 18 17
38 33 30 28 25 24 22 20 20 19 19 18 17 17 16 14 13 11 9 8 8 8 7 6 5 4 4 8 8 10 11 12 14 15 16 17 17 34 36 17 16 18 24
38 35 33 31 28 26 25 23 22 23 22 21 20 19 18 18 17 15 13 12 12 12 11 7 6 7 9 13 13 11 10 10 11 13 14 16 17 16 15 15 16 20 22
38 37 36 36 34 31 29 28 27 26 26 24 23 22 19 19 18 15 14 14 14 13 10 8 9 12 13 16 12 12 10 9 9 9 14 14 13 14 14 15 14 16 16
43 43 43 43 41 40 38 35 33 31 30 28 24 21 21 19 17 17 18 17 17 14 11 10 11 16 20 19 17 14 13 13 12 10 12 17 26 16 14 18 20 20 21

GFSSE_500_rhum_147.txt.gz
RH
46 42 47 52 38 56 91 41 30 26 25 24 24 26 29 31 31 31 32 30 24 22 20 17 16 15 15 16 17 18 16 15 14 14 12 10 9 10 14 35 18 22 26
54 52 59 62 57 76 66 42 28 27 27 26 26 28 31 32 34 33 33 33 31 25 22 21 20 20 18 18 16 16 15 15 15 16 16 14 12 12 16 46 22 20 26
61 68 70 62 65 79 57 83 48 28 34 30 28 30 32 34 35 36 35 34 34 33 27 22 21 21 20 18 17 15 14 14 14 14 16 18 18 15 22 56 36 35 22
63 63 43 57 65 99 99 99 71 36 38 35 33 32 33 34 34 37 37 35 34 35 35 28 24 22 21 21 22 21 19 19 18 18 16 16 30 27 33 55 67 72 45
48 30 36 55 54 98 98 95 77 63 39 38 32 33 34 36 36 37 40 41 39 41 40 35 28 25 24 23 24 26 27 26 25 24 22 19 24 22 30 56 55 66 86
30 50 46 42 58 91 98 87 68 60 42 38 36 39 37 39 42 44 42 41 39 40 43 44 40 32 28 26 25 26 27 27 27 28 30 28 25 22 33 30 42 48 58
30 43 54 46 48 56 58 61 54 45 41 40 40 39 41 42 42 42 42 42 41 39 41 44 44 45 42 40 38 30 28 30 32 33 31 33 38 37 30 28 44 44 44
25 28 44 50 42 40 43 43 44 43 42 40 41 42 42 42 43 44 44 43 43 42 41 42 43 45 46 50 53 58 52 43 36 34 38 36 36 41 46 48 42 47 48
16 21 31 36 38 39 40 42 43 43 44 45 45 44 44 46 45 46 50 50 44 42 41 41 43 41 36 38 39 39 48 59 60 58 52 63 62 59 47 42 44 58 54
24 14 15 24 35 39 40 42 46 47 48 48 46 43 39 38 32 34 38 39 40 43 49 51 35 23 19 15 13 12 17 24 28 41 39 49 62 73 80 81 70 55 48
26 24 21 16 11 11 11 12 14 15 13 14 12 11 11 9 12 15 13 12 16 14 15 27 30 27 22 22 24 33 34 43 40 40 49 51 37 43 74 82 82 73 74
23 25 26 24 23 22 22 20 19 18 17 16 15 12 9 8 8 9 12 13 12 12 13 23 27 28 34 36 38 45 54 56 52 50 54 42 37 32 49 62 51 46 59
33 23 25 26 23 20 17 16 17 21 28 31 30 32 22 15 15 15 18 19 18 18 22 26 27 30 34 34 36 38 35 44 44 45 45 44 44 43 46 42 42 50 54
40 35 31 28 29 32 33 26 19 18 22 27 28 34 33 32 24 18 15 16 14 16 23 25 26 30 33 34 32 32 33 32 33 34 31 31 33 32 30 29 34 37 48
38 41 41 41 39 41 42 43 38 29 27 27 29 32 32 30 29 33 37 35 30 34 35 33 30 26 22 21 22 23 23 22 21 20 20 20 22 24 24 20 19 31 47
34 35 38 43 46 46 45 44 40 33 30 29 30 31 28 27 28 29 32 36 36 32 26 20 16 16 16 15 15 14 14 14 13 12 11 12 13 14 15 14 13 13 22
24 25 35 46 49 52 50 42 37 34 31 30 31 31 29 27 24 22 23 23 21 17 14 14 15 15 15 14 15 13 12 11 10 8 6 6 5 5 7 8 9 7 9
19 22 35 60 59 56 49 41 37 35 33 30 28 28 26 23 19 18 19 17 15 15 14 15 15 14 14 13 12 10 9 8 7 6 5 4 4 4 4 4 4 5 6
27 32 42 59 63 60 52 42 37 31 28 26 27 24 20 19 19 18 17 16 16 15 16 16 15 13 12 11 10 9 8 7 6 5 5 4 4 4 4 4 3 3 4
43 54 68 66 62 64 66 53 44 31 24 24 24 21 20 20 19 18 17 17 17 17 17 16 14 13 12 11 10 10 9 7 6 5 5 5 5 5 5 5 4 5 3
57 64 76 75 60 65 80 68 41 30 26 25 23 22 20 20 19 19 19 19 19 19 18 16 15 15 13 13 13 12 10 9 9 9 9 8 8 8 7 7 8 12 7
86 80 75 72 59 65 60 49 40 31 28 27 25 24 22 22 21 21 20 20 20 20 18 18 18 18 16 12 9 9 10 12 11 10 10 10 10 8 8 10 11 11 11
88 81 81 62 56 59 58 50 44 39 35 32 30 29 27 25 24 23 23 22 22 21 21 21 20 18 14 13 11 13 13 14 15 14 14 12 9 8 10 12 10 9 9
90 82 75 55 52 57 56 47 43 37 34 33 33 32 33 32 30 28 27 26 25 25 25 24 24 21 17 20 23 23 20 15 12 12 12 10 10 10 9 10 9 8 9
78 75 64 53 55 57 53 48 42 38 40 41 42 40 42 42 40 38 36 34 33 32 33 33 32 29 30 31 28 18 14 11 9 8 6 6 6 8 12 24 21 17 14
63 63 54 59 66 58 55 54 45 44 47 47 46 47 48 49 49 49 49 48 48 49 49 46 42 41 36 28 22 19 12 7 5 5 4 5 8 37 42 34 27 22 18

GFSSE_500_rhum_150.txt.gz
RH
38 45 45 45 55 59 55 84 38 30 32 30 24 23 24 27 29 30 31 32 33 32 26 23 20 18 17 17 17 16 17 16 15 14 14 12 11 9 11 16 38 20 23
42 48 48 58 62 61 81 64 72 65 39 32 25 25 26 28 30 29 30 32 33 34 36 28 24 22 20 20 19 17 15 13 13 14 14 14 15 13 12 16 59 31 25
48 46 46 43 43 54 90 78 91 74 60 44 30 25 26 29 33 33 33 33 34 37 36 36 28 24 22 21 20 19 17 16 15 13 14 14 15 19 17 26 70 58 56
38 40 40 31 28 50 57 87 98 98 75 60 40 28 30 31 35 38 38 38 36 36 38 38 36 30 27 26 25 25 26 24 22 21 20 18 16 26 23 35 50 65 73
37 37 30 40 39 48 60 91 88 100 88 60 43 33 36 35 37 41 41 40 40 38 38 38 41 40 34 31 29 29 28 27 28 28 27 26 23 22 21 34 47 37 46
28 24 29 43 42 78 95 76 98 90 60 52 42 40 38 40 40 41 42 40 39 38 37 36 38 39 42 39 37 36 34 33 32 30 30 29 30 33 29 25 26 38 48
29 26 26 31 45 42 40 62 58 39 40 38 40 42 42 43 44 43 45 44 44 42 41 39 38 39 39 41 48 50 50 40 35 34 31 32 35 34 37 42 43 37 39
27 22 19 24 34 39 42 41 39 37 38 40 41 43 45 44 45 47 46 46 44 47 44 42 41 41 42 41 40 47 53 68 70 65 59 52 47 52 55 55 50 47 45
23 26 20 18 26 35 40 39 39 41 43 44 46 46 47 48 48 44 41 39 42 46 44 45 44 43 39 33 29 23 18 16 20 28 46 54 45 50 57 66 70 71 70
26 28 27 20 12 21 34 38 39 40 41 41 38 33 26 23 22 22 17 23 25 29 25 37 43 39 24 17 15 17 19 25 29 36 37 39 51 54 41 54 47 48 65
31 28 28 28 26 21 16 15 14 13 12 12 11 11 10 9 8 8 10 10 10 10 11 13 13 21 23 25 23 28 30 30 49 65 54 57 50 49 40 34 55 45 38
34 37 35 30 30 27 24 22 20 19 21 23 24 23 20 18 15 13 10 11 13 17 20 21 20 18 22 31 33 40 40 47 50 47 48 48 44 45 43 45 46 52 47
37 40 40 39 38 36 33 30 29 25 21 17 18 23 30 30 31 31 16 15 15 16 17 17 15 17 24 28 39 44 42 40 38 42 38 39 45 34 26 32 44 52 49
28 40 38 36 39 40 39 39 36 36 41 41 27 23 26 27 30 31 31 28 22 19 17 15 20 30 31 30 31 32 32 30 28 27 23 25 25 21 16 16 28 38 48
23 29 36 34 35 37 38 43 46 41 42 42 38 30 28 28 30 30 30 29 30 34 34 31 32 33 29 24 21 20 19 19 17 15 15 16 14 14 13 11 10 18 26
21 22 24 27 27 28 36 49 51 53 50 43 37 32 30 30 31 30 26 25 26 28 32 34 31 26 20 16 13 14 14 15 15 14 14 14 14 11 9 6 4 5 10
18 19 19 19 19 20 26 43 58 56 48 39 36 34 32 32 32 31 28 25 21 20 22 22 20 16 14 15 15 15 15 14 13 13 11 10 9 8 7 6 5 5 4
16 17 17 20 24 26 35 48 53 56 45 39 35 33 31 27 26 27 25 21 19 18 18 17 16 16 16 16 16 15 14 12 12 11 10 8 8 6 6 6 6 5 5
18 18 23 47 54 45 48 53 54 57 48 43 34 27 25 25 25 23 20 18 18 18 18 17 17 17 17 18 17 15 13 12 11 10 9 8 7 7 6 6 6 5 5
24 25 47 67 59 60 58 59 57 56 58 54 40 31 24 23 22 21 20 20 20 20 18 18 18 18 19 18 16 14 14 14 13 12 11 9 9 8 7 7 7 6 6
32 44 54 60 70 78 75 65 57 60 63 54 43 35 27 23 23 22 21 20 20 19 19 18 18 18 18 17 16 16 16 16 15 14 10 10 10 10 11 10 10 9 8
50 55 59 71 81 87 75 69 58 54 58 53 47 38 30 28 26 25 24 24 23 22 21 21 20 19 19 19 19 20 20 19 18 16 15 15 15 15 16 16 16 13 10
52 55 59 72 89 85 75 72 57 51 54 55 48 42 37 33 31 30 30 29 28 27 26 24 24 24 24 24 24 24 25 26 26 25 23 24 25 23 18 15 14 12 10
78 78 81 88 89 85 80 75 58 52 56 55 47 41 35 33 34 35 36 36 37 38 38 37 36 34 33 32 32 34 37 37 39 38 35 30 21 13 10 9 6 6 7
67 71 67 68 75 82 79 70 59 54 57 57 50 43 38 39 42 43 43 44 44 45 44 46 46 46 47 49 49 48 46 42 42 30 21 14 11 9 7 6 5 4 5
60 64 62 64 70 74 73 65 55 56 68 61 54 50 45 47 49 49 47 46 46 48 50 50 48 46 44 44 46 49 43 29 20 14 10 6 6 5 4 4 8 10 20

GFSSE_500_rhum_156.txt.gz
RH
24 30 35 36 37 39 37 36 45 46 40 47 56 24 24 25 25 28 28 28 29 31 33 34 30 25 22 21 19 18 17 16 13 12 12 13 13 13 14 13 14 36 51
19 24 30 32 33 37 35 30 46 48 62 56 53 26 26 26 27 30 32 32 31 32 33 34 36 31 25 23 22 23 23 21 19 20 22 24 12 12 19 22 29 39 58
15 21 23 29 29 30 29 31 37 42 57 75 54 36 28 28 30 31 34 36 35 34 35 35 36 36 31 26 24 23 24 24 24 24 31 44 24 19 22 22 31 38 52
13 19 20 23 25 23 24 27 32 36 64 82 46 44 30 31 33 33 35 37 36 34 34 34 35 37 37 33 28 26 25 24 25 24 25 30 31 32 27 24 26 32 35
12 16 16 17 22 23 21 22 26 53 58 64 85 36 32 33 34 36 39 40 39 38 35 36 34 36 38 36 36 35 31 30 28 28 50 27 27 33 31 34 40 44 41
13 12 14 13 17 19 21 21 25 41 40 37 41 34 35 38 39 40 41 42 41 41 38 36 36 36 38 39 40 38 40 42 41 36 42 35 34 37 40 38 36 40 46
15 15 14 13 13 18 20 21 23 27 29 30 33 36 39 41 42 43 42 43 42 42 40 38 38 36 39 38 40 39 40 42 47 57 61 61 56 55 55 58 66 63 64
16 15 15 13 13 19 18 21 22 21 24 25 29 32 36 38 42 41 41 39 34 34 36 38 41 38 37 40 42 42 36 36 33 29 30 37 54 54 56 62 64 66 61
17 16 15 13 14 20 17 20 25 25 24 21 17 16 15 16 15 13 10 10 13 15 21 31 32 28 35 43 42 33 26 24 16 13 16 28 34 40 46 61 53 48 44
19 16 14 13 14 22 19 22 27 28 29 27 22 20 19 16 14 15 14 11 8 8 14 14 16 16 14 17 24 26 20 18 21 26 32 39 57 68 52 50 49 48 46
18 18 14 13 13 18 24 24 28 33 36 35 32 27 24 21 20 22 24 24 17 14 8 9 9 9 10 13 17 18 23 30 30 35 43 45 50 50 73 75 68 58 51
15 17 17 14 15 16 24 28 28 36 38 39 39 40 40 41 42 38 23 22 29 30 27 14 11 13 20 20 21 29 47 46 48 52 55 67 44 46 51 65 65 66 63
12 14 15 16 15 16 20 29 30 35 38 38 40 42 45 46 46 42 41 30 25 28 29 33 23 14 20 24 24 24 30 40 55 60 56 64 39 40 49 50 52 54 50
10 12 14 13 14 16 18 19 25 31 32 31 32 37 42 47 50 48 44 40 29 26 27 31 32 32 20 17 18 18 18 27 35 34 30 28 27 21 16 18 17 17 18
10 11 13 13 13 14 18 20 19 20 24 22 21 22 35 49 49 51 47 39 33 29 28 29 30 30 30 32 36 35 32 35 35 28 20 18 18 16 16 16 15 15 14
10 11 13 14 13 13 15 17 18 19 18 19 20 30 44 48 46 51 44 38 33 30 30 31 30 27 28 26 29 33 35 34 30 22 17 13 12 14 15 15 12 10 10
10 11 15 21 18 14 14 15 16 16 17 23 43 49 52 50 47 51 43 36 34 32 30 32 33 30 27 23 22 23 24 23 20 17 15 15 13 14 14 12 10 10 9
10 19 29 28 17 14 15 16 18 18 18 36 60 58 59 54 50 54 41 35 32 31 29 27 27 24 22 20 20 21 20 19 18 16 16 16 14 14 14 13 11 11 9
18 23 27 25 18 16 16 16 19 22 24 40 48 52 62 56 52 55 46 39 30 26 27 26 24 21 20 20 20 20 20 19 18 16 17 16 18 16 15 14 14 14 14
21 27 34 26 19 17 17 19 23 26 35 46 53 50 66 60 56 62 55 44 35 29 25 23 23 22 22 20 21 20 20 20 18 18 18 18 18 18 18 17 18 18 19
34 43 60 31 21 20 21 26 30 36 48 54 57 54 67 61 54 54 54 50 47 42 32 27 25 24 24 23 23 23 23 23 22 22 22 21 21 22 22 24 26 26 26
58 56 41 29 26 26 32 39 47 52 55 59 61 67 69 61 54 47 47 48 48 45 41 37 33 31 30 30 30 29 28 29 30 30 30 32 34 34 32 34 37 38 34
46 40 36 32 31 36 41 46 50 57 67 73 76 76 70 62 56 49 48 50 50 48 43 39 35 33 34 35 36 37 37 35 37 40 37 38 42 46 42 36 33 32 31
54 45 44 41 41 57 51 51 59 66 70 73 77 75 65 66 62 54 52 53 56 56 51 47 44 41 40 43 44 42 42 43 43 42 43 44 45 41 38 39 34 29 24
57 66 61 58 52 56 55 56 65 67 63 68 76 71 62 63 67 67 60 54 61 70 69 64 58 52 47 47 48 48 49 58 60 58 52 46 43 40 36 33 28 25 23
55 71 71 71 61 54 57 61 68 66 53 64 74 68 62 61 66 69 70 65 66 74 77 75 67 59 54 56 65 62 60 66 61 54 48 32 20 17 17 13 11 10 9

GFSSE_500_rhum_159.txt.gz
RH
15 18 24 29 32 34 37 35 33 30 37 53 55 52 26 25 25 26 27 29 28 29 31 30 29 28 22 20 19 18 17 16 14 13 13 16 13 14 15 16 18 40 56
14 15 22 23 28 31 31 32 32 33 32 53 66 68 33 28 27 28 29 30 31 31 31 32 32 32 29 24 21 21 21 19 19 20 31 28 13 16 22 25 31 37 43
14 13 17 20 22 26 24 24 28 29 38 39 72 53 43 30 30 31 31 31 32 31 33 33 33 33 35 33 26 23 22 20 24 33 41 42 23 20 19 20 28 36 46
14 12 13 16 16 20 23 23 22 26 44 49 55 70 66 32 34 35 35 35 35 35 34 34 35 34 34 36 36 32 26 24 26 31 38 27 30 32 28 26 25 27 27
14 15 13 14 14 13 18 21 22 22 32 49 49 64 38 34 36 38 38 37 37 36 36 36 36 37 35 34 34 35 36 35 30 29 40 28 31 33 32 31 35 36 39
18 16 17 16 15 14 15 18 20 22 22 24 27 30 32 34 36 38 38 40 39 38 38 37 39 39 38 35 34 36 34 38 43 43 37 46 52 43 51 50 48 45 49
19 18 18 18 16 14 13 17 17 20 22 23 24 25 25 25 30 35 40 40 39 38 38 37 38 43 41 39 36 37 34 34 38 48 60 59 62 54 55 56 60 66 64
17 18 19 19 17 14 13 16 18 19 24 25 25 23 19 14 13 13 16 20 20 20 27 29 32 43 40 37 40 41 38 29 28 27 25 31 44 51 54 52 61 63 55
15 16 18 19 18 15 13 14 18 19 23 26 29 28 27 25 21 18 14 11 9 8 9 15 26 30 33 42 49 46 31 22 17 15 13 21 37 62 57 53 54 54 50
14 14 16 18 18 16 14 13 17 21 22 29 32 33 35 35 32 25 22 22 22 16 12 9 14 16 17 16 21 27 27 24 21 20 24 33 40 47 63 68 63 59 54
14 13 13 15 17 17 15 14 14 20 26 31 31 36 40 41 42 43 42 41 29 23 26 17 11 10 10 10 11 13 18 20 24 31 44 61 50 62 70 57 58 66 64
14 14 12 12 14 16 15 15 14 17 28 33 32 37 39 41 44 47 48 48 43 39 25 29 29 22 11 11 18 21 24 27 39 58 62 64 65 70 58 60 55 55 58
16 15 12 11 11 13 15 15 16 16 20 29 33 31 31 33 34 40 44 48 49 45 39 27 27 28 33 23 15 23 30 34 39 36 57 57 81 92 42 31 52 52 54
18 14 12 12 11 12 13 14 15 15 17 21 24 27 25 21 22 32 39 42 47 48 42 35 28 27 31 34 34 26 18 20 20 22 27 34 36 30 19 15 13 14 14
17 13 12 12 11 11 13 14 14 14 17 20 21 19 19 19 30 47 48 46 44 47 41 35 30 28 29 32 33 32 33 37 36 32 32 35 30 22 16 15 15 14 13
16 12 12 12 11 11 14 21 19 14 14 17 20 17 18 28 46 60 61 50 46 47 38 34 32 31 31 32 29 30 31 29 30 36 33 31 23 20 21 15 13 14 13
20 13 11 10 10 12 25 30 20 15 15 17 18 18 19 44 48 55 61 56 48 47 38 35 35 33 33 34 34 31 28 26 26 24 22 23 20 20 19 17 15 14 13
28 20 12 11 12 24 27 28 23 18 17 18 19 19 24 42 48 50 58 53 56 49 37 32 31 30 29 29 27 25 22 22 22 22 21 18 18 19 18 16 16 16 15
31 34 32 18 20 24 29 29 25 19 17 18 21 25 28 46 50 52 64 55 58 56 45 35 27 25 25 25 23 23 23 22 21 21 21 20 19 18 17 17 18 18 18
37 34 30 22 25 32 37 42 29 21 18 20 25 30 45 52 52 57 68 59 60 61 52 40 36 32 26 23 23 22 22 21 21 21 21 22 21 22 20 19 20 21 21
56 48 41 40 41 41 49 51 36 22 21 26 38 52 54 57 57 68 71 60 54 55 53 50 47 42 34 30 28 27 28 27 26 25 26 26 25 24 25 26 27 28 30
53 65 66 61 50 41 37 34 31 26 25 43 58 58 59 69 76 76 69 67 53 50 51 51 48 44 41 37 34 32 32 32 29 31 33 34 35 36 37 38 34 33 34
39 62 65 56 52 46 39 35 31 29 33 52 59 60 68 70 74 78 66 64 62 54 52 53 54 50 45 42 39 39 39 41 39 40 42 44 40 37 39 44 44 44 43
47 50 66 62 56 50 45 42 41 40 43 50 52 60 70 71 71 68 69 61 63 58 55 53 56 63 61 56 52 49 49 49 47 47 46 46 49 53 56 54 53 50 44
75 75 68 90 77 73 65 58 53 52 53 50 56 63 68 67 64 65 65 61 58 63 65 63 58 60 72 81 79 70 60 56 53 55 68 70 60 63 60 54 50 47 36
90 76 72 89 92 94 95 90 83 76 70 60 67 75 74 70 69 70 74 68 58 62 68 71 71 69 71 73 76 73 68 66 68 75 78 80 70 65 62 41 22 12 17